,,PA_Meas_PMT16A,,PR_Meas_QMR101_102,,RH_Meas_QMH101,,SR_Meas_QMS101,,TA_Meas_QMH101,,GenWind,,GenWind,
time,status,PA,status,PR,status,RH,status,SR,status,TA,status,DirAvg,status,SpdAvg,
2015-02-14, 00:00:04,VALID,918.304,VALID,0,VALID,96.5277,VALID,0,VALID,19.6248,VALID,71,VALID,0,
2015-02-14, 00:01:04,VALID,918.32,VALID,0,VALID,96.6573,VALID,0,VALID,19.6443,VALID,72,VALID,0,
2015-02-14, 00:02:04,VALID,918.311,VALID,0,VALID,96.7488,VALID,0,VALID,19.6638,VALID,72,VALID,0,
2015-02-14, 00:03:04,VALID,918.293,VALID,0,VALID,96.8479,VALID,0,VALID,19.6638,VALID,72,VALID,0,
2015-02-14, 00:04:04,VALID,918.256,VALID,0,VALID,96.8631,VALID,0,VALID,19.6638,VALID,91,VALID,0,
2015-02-14, 00:05:04,VALID,918.28,VALID,0,VALID,96.9089,VALID,0,VALID,19.6848,VALID,91,VALID,0,
2015-02-14, 00:06:04,VALID,918.262,VALID,0,VALID,96.9317,VALID,0,VALID,19.6248,VALID,91,VALID,0,
2015-02-14, 00:07:04,VALID,918.25,VALID,0,VALID,96.9622,VALID,0,VALID,19.6443,VALID,91,VALID,0,
2015-02-14, 00:08:04,VALID,918.244,VALID,0,VALID,97.008,VALID,0,VALID,19.6848,VALID,91,VALID,0,
2015-02-14, 00:09:04,VALID,918.205,VALID,0,VALID,97.0537,VALID,0,VALID,19.6638,VALID,91,VALID,0,
2015-02-14, 00:10:04,VALID,918.182,VALID,0,VALID,97.0537,VALID,0,VALID,19.6443,VALID,91,VALID,0,
2015-02-14, 00:11:04,VALID,918.191,VALID,0,VALID,97.008,VALID,0,VALID,19.6053,VALID,91,VALID,0,
2015-02-14, 00:12:04,VALID,918.192,VALID,0,VALID,96.8936,VALID,0,VALID,19.5273,VALID,91,VALID,0,
2015-02-14, 00:13:04,VALID,918.172,VALID,0,VALID,96.8936,VALID,0,VALID,19.5273,VALID,91,VALID,0,
2015-02-14, 00:14:04,VALID,918.164,VALID,0,VALID,96.9241,VALID,0,VALID,19.5273,VALID,91,VALID,0,
2015-02-14, 00:15:04,VALID,918.208,VALID,0,VALID,96.9394,VALID,0,VALID,19.5873,VALID,91,VALID,0,
2015-02-14, 00:16:04,VALID,918.239,VALID,0,VALID,96.9546,VALID,0,VALID,19.5663,VALID,91,VALID,0,
2015-02-14, 00:17:04,VALID,918.236,VALID,0,VALID,96.9622,VALID,0,VALID,19.6068,VALID,91,VALID,0,
2015-02-14, 00:18:04,VALID,918.241,VALID,0,VALID,96.9317,VALID,0,VALID,19.6068,VALID,91,VALID,0,
2015-02-14, 00:19:04,VALID,918.21,VALID,0,VALID,96.9241,VALID,0,VALID,19.6068,VALID,91,VALID,0,
2015-02-14, 00:20:04,VALID,918.176,VALID,0,VALID,96.9317,VALID,0,VALID,19.6053,VALID,91,VALID,0,
2015-02-14, 00:21:04,VALID,918.188,VALID,0,VALID,96.8936,VALID,0,VALID,19.6053,VALID,91,VALID,0,
2015-02-14, 00:22:04,VALID,918.167,VALID,0,VALID,96.8936,VALID,0,VALID,19.6248,VALID,91,VALID,0,
2015-02-14, 00:23:04,VALID,918.185,VALID,0,VALID,96.8784,VALID,0,VALID,19.6248,VALID,91,VALID,0,
2015-02-14, 00:24:04,VALID,918.202,VALID,0,VALID,96.4819,VALID,0,VALID,19.5288,VALID,91,VALID,0,
2015-02-14, 00:25:04,VALID,918.201,VALID,0,VALID,96.4286,VALID,0,VALID,19.4883,VALID,91,VALID,0,
2015-02-14, 00:26:04,VALID,918.222,VALID,0,VALID,96.4972,VALID,0,VALID,19.5093,VALID,91,VALID,0,
2015-02-14, 00:27:04,VALID,918.192,VALID,0,VALID,96.5201,VALID,0,VALID,19.5093,VALID,91,VALID,0,
2015-02-14, 00:28:04,VALID,918.168,VALID,0,VALID,96.4286,VALID,0,VALID,19.4508,VALID,91,VALID,0,
2015-02-14, 00:29:04,VALID,918.152,VALID,0,VALID,96.4057,VALID,0,VALID,19.3908,VALID,91,VALID,0,
2015-02-14, 00:30:04,VALID,918.13,VALID,0,VALID,96.4362,VALID,0,VALID,19.4118,VALID,91,VALID,0,
2015-02-14, 00:31:04,VALID,918.151,VALID,0,VALID,96.5048,VALID,0,VALID,19.4118,VALID,91,VALID,0,
2015-02-14, 00:32:04,VALID,918.147,VALID,0,VALID,96.5811,VALID,0,VALID,19.4313,VALID,91,VALID,0,
2015-02-14, 00:33:04,VALID,918.146,VALID,0,VALID,96.6268,VALID,0,VALID,19.4493,VALID,91,VALID,0,
2015-02-14, 00:34:04,VALID,918.174,VALID,0,VALID,96.6725,VALID,0,VALID,19.4508,VALID,91,VALID,0,
2015-02-14, 00:35:04,VALID,918.101,VALID,0,VALID,96.6725,VALID,0,VALID,19.4703,VALID,91,VALID,0,
2015-02-14, 00:36:04,VALID,918.106,VALID,0,VALID,96.7564,VALID,0,VALID,19.5093,VALID,91,VALID,0,
2015-02-14, 00:37:04,VALID,918.105,VALID,0,VALID,96.8098,VALID,0,VALID,19.5678,VALID,91,VALID,0,
2015-02-14, 00:38:04,VALID,918.097,VALID,0,VALID,96.8479,VALID,0,VALID,19.6068,VALID,91,VALID,0,
2015-02-14, 00:39:04,VALID,918.064,VALID,0,VALID,96.8403,VALID,0,VALID,19.6248,VALID,91,VALID,0,
2015-02-14, 00:40:04,VALID,918.061,VALID,0,VALID,96.8707,VALID,0,VALID,19.7433,VALID,91,VALID,0,
2015-02-14, 00:41:04,VALID,918.082,VALID,0,VALID,96.8479,VALID,0,VALID,19.8018,VALID,91,VALID,0,
2015-02-14, 00:42:04,VALID,918.044,VALID,0,VALID,96.7716,VALID,0,VALID,19.8603,VALID,91,VALID,0,
2015-02-14, 00:43:04,VALID,918.057,VALID,0,VALID,96.642,VALID,0,VALID,19.9188,VALID,91,VALID,0,
2015-02-14, 00:44:04,VALID,918.013,VALID,0,VALID,96.4819,VALID,0,VALID,19.9578,VALID,91,VALID,0,
2015-02-14, 00:45:04,VALID,917.977,VALID,0,VALID,96.2914,VALID,0,VALID,19.9563,VALID,91,VALID,0,
2015-02-14, 00:46:04,VALID,917.914,VALID,0,VALID,96.0627,VALID,0,VALID,19.9773,VALID,91,VALID,0,
2015-02-14, 00:47:04,VALID,917.893,VALID,0,VALID,95.8416,VALID,0,VALID,19.9968,VALID,91,VALID,0,
2015-02-14, 00:48:04,VALID,917.893,VALID,0,VALID,95.6739,VALID,0,VALID,20.0148,VALID,91,VALID,0,
2015-02-14, 00:49:04,VALID,917.885,VALID,0,VALID,95.4985,VALID,0,VALID,20.0553,VALID,91,VALID,0,
2015-02-14, 00:50:04,VALID,917.878,VALID,0,VALID,95.3384,VALID,0,VALID,20.0553,VALID,91,VALID,0,
2015-02-14, 00:51:04,VALID,917.898,VALID,0,VALID,95.1479,VALID,0,VALID,20.0358,VALID,91,VALID,0,
2015-02-14, 07:23:04,VALID,917.524,VALID,0,VALID,94.9039,VALID,87.3497,VALID,19.1763,VALID,141,VALID,1.37773,
2015-02-14, 07:24:04,VALID,917.541,VALID,0,VALID,94.6676,VALID,90.2506,VALID,19.2363,VALID,142,VALID,1.25742,
2015-02-14, 07:25:04,VALID,917.508,VALID,0,VALID,94.3017,VALID,92.9366,VALID,19.2738,VALID,130,VALID,1.38047,
2015-02-14, 07:26:04,VALID,917.516,VALID,0,VALID,93.6765,VALID,95.9449,VALID,19.3323,VALID,149,VALID,1.30156,
2015-02-14, 07:27:04,VALID,917.524,VALID,0,VALID,93.0133,VALID,98.5235,VALID,19.4103,VALID,131,VALID,1.51719,
2015-02-14, 07:28:04,VALID,917.564,VALID,0,VALID,92.2205,VALID,101.21,VALID,19.5078,VALID,143,VALID,1.54609,
2015-02-14, 07:29:04,VALID,917.589,VALID,0,VALID,91.8164,VALID,104.325,VALID,19.5873,VALID,136,VALID,0.540234,
2015-02-14, 07:30:04,VALID,917.607,VALID,0,VALID,91.3666,VALID,107.549,VALID,19.6653,VALID,148,VALID,1.03125,
2015-02-14, 07:31:04,VALID,917.612,VALID,0,VALID,90.7187,VALID,110.45,VALID,19.7223,VALID,147,VALID,1.28086,
2015-02-14, 07:32:04,VALID,917.632,VALID,0,VALID,90.368,VALID,113.35,VALID,19.7808,VALID,125,VALID,1.27969,
2015-02-14, 07:33:04,VALID,917.659,VALID,0,VALID,89.9106,VALID,117.326,VALID,19.8198,VALID,127,VALID,1.99766,
2015-02-14, 07:34:04,VALID,917.659,VALID,0,VALID,89.8496,VALID,120.012,VALID,19.8588,VALID,130,VALID,1.26797,
2015-02-14, 07:35:04,VALID,917.66,VALID,0,VALID,89.7886,VALID,121.516,VALID,19.8978,VALID,130,VALID,1.74727,
2015-02-14, 07:36:04,VALID,917.689,VALID,0,VALID,89.8343,VALID,123.557,VALID,19.9563,VALID,140,VALID,1.05547,
2015-02-14, 07:37:04,VALID,917.683,VALID,0,VALID,89.4379,VALID,125.814,VALID,20.0343,VALID,130,VALID,0.951563,
2015-02-14, 07:38:04,VALID,917.707,VALID,0,VALID,89.0949,VALID,124.202,VALID,20.1154,VALID,144,VALID,1.21211,
2015-02-14, 07:39:04,VALID,917.746,VALID,0,VALID,88.7137,VALID,128.392,VALID,20.1529,VALID,152,VALID,0.887891,
2015-02-14, 07:40:04,VALID,917.744,VALID,0,VALID,88.6756,VALID,134.731,VALID,20.2293,VALID,142,VALID,1.46875,
2015-02-14, 07:41:04,VALID,917.767,VALID,0,VALID,88.7823,VALID,135.268,VALID,20.2684,VALID,139,VALID,0.771484,
2015-02-14, 07:42:04,VALID,917.803,VALID,0,VALID,88.4621,VALID,137.202,VALID,20.3074,VALID,142,VALID,1.68789,
2015-02-14, 07:43:04,VALID,917.786,VALID,0,VALID,88.5079,VALID,139.136,VALID,20.3464,VALID,130,VALID,0.862109,
2015-02-14, 07:44:04,VALID,917.813,VALID,0,VALID,87.9437,VALID,141.285,VALID,20.3659,VALID,137,VALID,1.88477,
2015-02-14, 07:45:04,VALID,917.796,VALID,0,VALID,88.0657,VALID,141.5,VALID,20.4228,VALID,134,VALID,1.11367,
2015-02-14, 07:46:04,VALID,917.825,VALID,0,VALID,87.5778,VALID,145.475,VALID,20.4634,VALID,127,VALID,1.8543,
2015-02-14, 07:47:04,VALID,917.827,VALID,0,VALID,88.1191,VALID,149.236,VALID,20.4618,VALID,152,VALID,0.924219,
2015-02-14, 07:48:04,VALID,917.832,VALID,0,VALID,86.9756,VALID,148.376,VALID,20.4813,VALID,134,VALID,1.84336,
2015-02-14, 07:49:04,VALID,917.867,VALID,0,VALID,87.6083,VALID,152.566,VALID,20.5399,VALID,126,VALID,0.671094,
2015-02-14, 07:50:04,VALID,917.898,VALID,0,VALID,87.3643,VALID,156.757,VALID,20.5999,VALID,122,VALID,1.47344,
2015-02-14, 07:51:04,VALID,917.911,VALID,0,VALID,87.2119,VALID,161.054,VALID,20.5594,VALID,127,VALID,1.70469,
2015-02-14, 07:52:04,VALID,917.932,VALID,0,VALID,87.7455,VALID,164.385,VALID,20.582,VALID,123,VALID,1.14414,
2015-02-14, 07:53:04,VALID,917.934,VALID,0,VALID,87.9666,VALID,169.435,VALID,20.582,VALID,147,VALID,1.20469,
2015-02-14, 07:54:04,VALID,917.937,VALID,0,VALID,88.0428,VALID,169.65,VALID,20.5804,VALID,126,VALID,0.351953,
2015-02-14, 07:55:04,VALID,917.942,VALID,0,VALID,88.0352,VALID,174.699,VALID,20.5999,VALID,117,VALID,1.46602,
2015-02-14, 07:56:04,VALID,917.962,VALID,0,VALID,87.8294,VALID,178.46,VALID,20.5804,VALID,129,VALID,1.09063,
2015-02-14, 07:57:04,VALID,917.96,VALID,0,VALID,87.5549,VALID,181.576,VALID,20.5804,VALID,126,VALID,0.967969,
2015-02-14, 07:58:04,VALID,917.943,VALID,0,VALID,87.8827,VALID,184.691,VALID,20.5999,VALID,124,VALID,2.33203,
2015-02-14, 07:59:04,VALID,917.948,VALID,0,VALID,88.1496,VALID,185.981,VALID,20.5999,VALID,134,VALID,1.55,
2015-02-14, 08:00:04,VALID,917.95,VALID,0,VALID,87.9895,VALID,186.41,VALID,20.6179,VALID,133,VALID,0.616797,
2015-02-14, 08:01:04,VALID,917.969,VALID,0,VALID,88.3783,VALID,191.782,VALID,20.678,VALID,113,VALID,1.58945,
2015-02-14, 08:02:04,VALID,917.964,VALID,0,VALID,88.1267,VALID,196.617,VALID,20.678,VALID,127,VALID,2.25156,
2015-02-14, 08:03:04,VALID,917.939,VALID,0,VALID,88.4088,VALID,197.262,VALID,20.717,VALID,126,VALID,2.10195,
2015-02-14, 08:04:04,VALID,917.951,VALID,0,VALID,87.715,VALID,204.138,VALID,20.6959,VALID,122,VALID,2.42227,
2015-02-14, 08:05:04,VALID,917.976,VALID,0,VALID,87.8065,VALID,205.213,VALID,20.717,VALID,133,VALID,1.47266,
2015-02-14, 08:06:04,VALID,917.94,VALID,0,VALID,88.1724,VALID,208.328,VALID,20.7739,VALID,138,VALID,0,
2015-02-14, 08:07:04,VALID,917.985,VALID,0,VALID,88.6527,VALID,215.42,VALID,20.912,VALID,104,VALID,0.912109,
2015-02-14, 08:08:04,VALID,918.012,VALID,0,VALID,87.0137,VALID,220.039,VALID,20.8145,VALID,125,VALID,2.49141,
2015-02-14, 08:09:04,VALID,918.073,VALID,0,VALID,87.3796,VALID,219.825,VALID,20.8145,VALID,117,VALID,1.98086,
2015-02-14, 08:10:04,VALID,918.052,VALID,0,VALID,87.1814,VALID,223.37,VALID,20.8145,VALID,110,VALID,2.22461,
2015-02-14, 08:11:04,VALID,918.104,VALID,0,VALID,87.5397,VALID,230.139,VALID,20.8551,VALID,117,VALID,1.31055,
2015-02-14, 08:12:04,VALID,918.114,VALID,0,VALID,88.1419,VALID,232.718,VALID,20.9316,VALID,130,VALID,1.22773,
2015-02-14, 08:13:04,VALID,918.145,VALID,0,VALID,87.7836,VALID,237.982,VALID,21.0486,VALID,132,VALID,0.947656,
2015-02-14, 08:14:04,VALID,918.121,VALID,0,VALID,87.067,VALID,239.486,VALID,21.2242,VALID,117,VALID,1.19141,
2015-02-14, 08:15:04,VALID,918.155,VALID,0,VALID,86.6401,VALID,241.098,VALID,21.3998,VALID,127,VALID,0.965625,
2015-02-14, 08:16:04,VALID,918.164,VALID,0,VALID,85.6186,VALID,244.751,VALID,21.4583,VALID,125,VALID,1.23438,
2015-02-14, 08:17:04,VALID,918.189,VALID,0,VALID,85.1612,VALID,248.189,VALID,21.4957,VALID,141,VALID,0,
2015-02-14, 08:18:04,VALID,918.182,VALID,0,VALID,83.141,VALID,250.016,VALID,21.5363,VALID,155,VALID,0.0632813,
2015-02-14, 08:19:04,VALID,918.191,VALID,0,VALID,83.7432,VALID,254.743,VALID,21.6339,VALID,148,VALID,0,
2015-02-14, 08:20:04,VALID,918.247,VALID,0,VALID,83.4154,VALID,254.636,VALID,21.7103,VALID,158,VALID,0,
2015-02-14, 08:21:04,VALID,918.254,VALID,0,VALID,83.9186,VALID,259.9,VALID,21.7493,VALID,156,VALID,0,
2015-02-14, 08:22:04,VALID,918.248,VALID,0,VALID,83.4383,VALID,263.768,VALID,21.8095,VALID,156,VALID,0,
2015-02-14, 08:23:04,VALID,918.276,VALID,0,VALID,83.0647,VALID,268.818,VALID,21.8876,VALID,157,VALID,0.254297,
2015-02-14, 08:24:04,VALID,918.286,VALID,0,VALID,83.0038,VALID,273.653,VALID,21.9835,VALID,153,VALID,0,
2015-02-14, 08:25:04,VALID,918.317,VALID,0,VALID,82.5692,VALID,280.959,VALID,22.0615,VALID,126,VALID,1.30234,
2015-02-14, 08:26:04,VALID,918.329,VALID,0,VALID,81.0217,VALID,286.116,VALID,22.1022,VALID,173,VALID,1.47266,
2015-02-14, 08:27:04,VALID,918.321,VALID,0,VALID,81.662,VALID,285.364,VALID,22.1022,VALID,128,VALID,1.27109,
2015-02-14, 08:28:04,VALID,918.336,VALID,0,VALID,82.0051,VALID,289.554,VALID,22.1786,VALID,123,VALID,0.791406,
2015-02-14, 08:29:04,VALID,918.358,VALID,0,VALID,82.615,VALID,291.166,VALID,22.3152,VALID,127,VALID,0,
2015-02-14, 08:30:04,VALID,918.342,VALID,0,VALID,82.4472,VALID,290.736,VALID,22.3542,VALID,109,VALID,0,
2015-02-14, 08:31:04,VALID,918.348,VALID,0,VALID,82.2948,VALID,294.926,VALID,22.5299,VALID,115,VALID,0.00078125,
2015-02-14, 08:32:04,VALID,918.332,VALID,0,VALID,80.5261,VALID,298.579,VALID,22.5884,VALID,126,VALID,0.0207031,
2015-02-14, 08:33:04,VALID,918.33,VALID,0,VALID,77.3014,VALID,305.24,VALID,22.6079,VALID,136,VALID,0.658984,
2015-02-14, 08:34:04,VALID,918.329,VALID,0,VALID,78.4983,VALID,306.959,VALID,22.5477,VALID,125,VALID,0.390234,
2015-02-14, 08:35:04,VALID,918.338,VALID,0,VALID,79.8858,VALID,310.505,VALID,22.6079,VALID,104,VALID,0,
2015-02-14, 08:36:04,VALID,918.329,VALID,0,VALID,78.8947,VALID,312.654,VALID,22.6079,VALID,132,VALID,0.995313,
2015-02-14, 08:37:04,VALID,918.306,VALID,0,VALID,80.7396,VALID,315.232,VALID,22.6257,VALID,93,VALID,1.47187,
2015-02-14, 08:38:04,VALID,918.347,VALID,0,VALID,78.2086,VALID,322.001,VALID,22.6647,VALID,60,VALID,2.0918,
2015-02-14, 08:39:04,VALID,918.298,VALID,0,VALID,79.7104,VALID,329.844,VALID,22.686,VALID,79,VALID,1.21797,
2015-02-14, 08:40:04,VALID,918.29,VALID,0,VALID,79.9391,VALID,334.894,VALID,22.6647,VALID,110,VALID,1.06172,
2015-02-14, 08:41:04,VALID,918.312,VALID,0,VALID,77.1109,VALID,339.299,VALID,22.6062,VALID,119,VALID,0.0257812,
2015-02-14, 08:42:04,VALID,918.306,VALID,0,VALID,77.8427,VALID,342.63,VALID,22.6257,VALID,151,VALID,0,
2015-02-14, 08:43:04,VALID,918.294,VALID,0,VALID,78.9862,VALID,342.308,VALID,22.6062,VALID,114,VALID,1.44023,
2015-02-14, 08:44:04,VALID,918.307,VALID,0,VALID,80.3356,VALID,345.316,VALID,22.6665,VALID,85,VALID,0,
2015-02-14, 08:45:04,VALID,918.263,VALID,0,VALID,81.197,VALID,346.175,VALID,22.8014,VALID,96,VALID,0,
2015-02-14, 08:46:04,VALID,918.304,VALID,0,VALID,81.014,VALID,344.671,VALID,23.016,VALID,126,VALID,0,
2015-02-14, 08:47:04,VALID,918.284,VALID,0,VALID,76.0893,VALID,351.225,VALID,23.0746,VALID,148,VALID,1.79062,
2015-02-14, 08:48:04,VALID,918.301,VALID,0,VALID,77.7588,VALID,354.233,VALID,22.977,VALID,83,VALID,1.5293,
2015-02-14, 08:49:04,VALID,918.292,VALID,0,VALID,77.7588,VALID,354.448,VALID,23.0338,VALID,57,VALID,1.04023,
2015-02-14, 08:50:04,VALID,918.305,VALID,0,VALID,79.5808,VALID,354.878,VALID,23.2485,VALID,57,VALID,0.0289063,
2015-02-14, 08:51:04,VALID,918.275,VALID,0,VALID,77.1261,VALID,360.787,VALID,23.3283,VALID,102,VALID,0.977344,
2015-02-14, 08:52:04,VALID,918.289,VALID,0,VALID,77.3396,VALID,361.969,VALID,23.2502,VALID,105,VALID,0.229687,
2015-02-14, 08:53:04,VALID,918.288,VALID,0,VALID,77.6521,VALID,367.879,VALID,23.3088,VALID,136,VALID,0,
2015-02-14, 08:54:04,VALID,918.291,VALID,0,VALID,76.3333,VALID,374.432,VALID,23.4454,VALID,150,VALID,0.78125,
2015-02-14, 08:55:04,VALID,918.25,VALID,0,VALID,75.4337,VALID,377.763,VALID,23.3283,VALID,139,VALID,0.186719,
2015-02-14, 08:56:04,VALID,918.234,VALID,0,VALID,76.4934,VALID,373.788,VALID,23.2698,VALID,155,VALID,0.890625,
2015-02-14, 08:57:04,VALID,918.269,VALID,0,VALID,76.5391,VALID,366.912,VALID,23.1917,VALID,169,VALID,1.76992,
2015-02-14, 08:58:04,VALID,918.234,VALID,0,VALID,77.2633,VALID,365.622,VALID,23.1527,VALID,153,VALID,0.0804688,
2015-02-14, 08:59:04,VALID,918.226,VALID,0,VALID,78.2162,VALID,362.829,VALID,23.2112,VALID,87,VALID,0,
2015-02-14, 09:00:04,VALID,918.241,VALID,0,VALID,77.9266,VALID,366.267,VALID,23.4259,VALID,116,VALID,0,
2015-02-14, 09:01:04,VALID,918.269,VALID,0,VALID,76.966,VALID,371.424,VALID,23.5821,VALID,116,VALID,0,
2015-02-14, 09:02:04,VALID,918.249,VALID,0,VALID,74.6866,VALID,366.697,VALID,23.6406,VALID,184,VALID,0,
2015-02-14, 09:03:04,VALID,918.294,VALID,0,VALID,74.1377,VALID,374.862,VALID,23.6211,VALID,165,VALID,0.337891,
2015-02-14, 09:04:04,VALID,918.264,VALID,0,VALID,75.8454,VALID,375.722,VALID,23.543,VALID,175,VALID,0,
2015-02-14, 09:05:04,VALID,918.292,VALID,0,VALID,75.9216,VALID,380.234,VALID,23.4845,VALID,92,VALID,0.367188,
2015-02-14, 09:06:04,VALID,918.285,VALID,0,VALID,76.9813,VALID,385.929,VALID,23.5022,VALID,107,VALID,0.00507812,
2015-02-14, 09:07:04,VALID,918.273,VALID,0,VALID,75.609,VALID,394.524,VALID,23.5235,VALID,157,VALID,0,
2015-02-14, 09:08:04,VALID,918.3,VALID,0,VALID,75.6395,VALID,403.979,VALID,23.6406,VALID,191,VALID,0.453516,
2015-02-14, 09:09:04,VALID,918.305,VALID,0,VALID,73.8557,VALID,410.748,VALID,23.7187,VALID,201,VALID,0,
2015-02-14, 09:10:04,VALID,918.318,VALID,0,VALID,75.0525,VALID,416.334,VALID,23.7382,VALID,124,VALID,0.0195313,
2015-02-14, 09:11:04,VALID,918.311,VALID,0,VALID,72.8036,VALID,426.219,VALID,23.756,VALID,175,VALID,0,
2015-02-14, 09:12:04,VALID,918.362,VALID,0,VALID,73.9776,VALID,426.112,VALID,23.8145,VALID,175,VALID,0,
2015-02-14, 09:13:04,VALID,918.38,VALID,0,VALID,73.7718,VALID,429.765,VALID,23.8731,VALID,150,VALID,0,
2015-02-14, 09:14:04,VALID,918.399,VALID,0,VALID,73.6193,VALID,438.897,VALID,24.0292,VALID,131,VALID,0,
2015-02-14, 09:15:04,VALID,918.391,VALID,0,VALID,74.8848,VALID,442.335,VALID,24.1073,VALID,101,VALID,0.221094,
2015-02-14, 09:16:04,VALID,918.377,VALID,0,VALID,72.5292,VALID,452.972,VALID,24.0878,VALID,167,VALID,1.56719,
2015-02-14, 09:17:04,VALID,918.378,VALID,0,VALID,71.5076,VALID,462.212,VALID,24.1677,VALID,176,VALID,0.458203,
2015-02-14, 09:18:04,VALID,918.377,VALID,0,VALID,72.2929,VALID,465.865,VALID,24.283,VALID,139,VALID,0.610937,
2015-02-14, 09:19:04,VALID,918.38,VALID,0,VALID,72.5216,VALID,474.89,VALID,24.4002,VALID,91,VALID,0.00664063,
2015-02-14, 09:20:04,VALID,918.388,VALID,0,VALID,71.1417,VALID,475.642,VALID,24.5173,VALID,105,VALID,0,
2015-02-14, 09:21:04,VALID,918.387,VALID,0,VALID,70.2345,VALID,484.022,VALID,24.6735,VALID,120,VALID,0,
2015-02-14, 09:22:04,VALID,918.408,VALID,0,VALID,71.6677,VALID,484.237,VALID,24.8688,VALID,111,VALID,0,
2015-02-14, 09:23:04,VALID,918.391,VALID,0,VALID,68.6946,VALID,491.651,VALID,24.9078,VALID,165,VALID,0.3,
2015-02-14, 09:24:04,VALID,918.383,VALID,0,VALID,70.2879,VALID,496.486,VALID,24.7126,VALID,138,VALID,0.265625,
2015-02-14, 09:25:04,VALID,918.378,VALID,0,VALID,71.0884,VALID,498.957,VALID,24.7516,VALID,136,VALID,0,
2015-02-14, 09:26:04,VALID,918.364,VALID,0,VALID,69.2435,VALID,492.833,VALID,24.8688,VALID,166,VALID,0,
2015-02-14, 09:27:04,VALID,918.373,VALID,0,VALID,70.2269,VALID,504.759,VALID,24.9274,VALID,110,VALID,0,
2015-02-14, 09:28:04,VALID,918.338,VALID,0,VALID,69.6094,VALID,509.486,VALID,24.9274,VALID,188,VALID,0.325,
2015-02-14, 09:29:04,VALID,918.349,VALID,0,VALID,70.1431,VALID,508.949,VALID,24.8669,VALID,172,VALID,0.572656,
2015-02-14, 09:30:04,VALID,918.341,VALID,0,VALID,70.9511,VALID,516.899,VALID,24.8688,VALID,160,VALID,0.00234375,
2015-02-14, 09:31:04,VALID,918.34,VALID,0,VALID,69.9601,VALID,509.056,VALID,24.6754,VALID,174,VALID,1.71211,
2015-02-14, 09:32:04,VALID,918.322,VALID,0,VALID,70.9206,VALID,510.56,VALID,24.6735,VALID,157,VALID,0,
2015-02-14, 09:33:04,VALID,918.325,VALID,0,VALID,70.4251,VALID,511.742,VALID,24.5954,VALID,173,VALID,2.00469,
2015-02-14, 09:34:04,VALID,918.289,VALID,0,VALID,72.0337,VALID,508.412,VALID,24.4002,VALID,165,VALID,1.14141,
2015-02-14, 09:35:04,VALID,918.295,VALID,0,VALID,73.7337,VALID,515.18,VALID,24.3983,VALID,90,VALID,1.30469,
2015-02-14, 09:36:04,VALID,918.262,VALID,0,VALID,73.1086,VALID,530.974,VALID,24.3806,VALID,121,VALID,0.303516,
2015-02-14, 09:37:04,VALID,918.272,VALID,0,VALID,73.0171,VALID,536.346,VALID,24.4783,VALID,108,VALID,0.877734,
2015-02-14, 09:38:04,VALID,918.293,VALID,0,VALID,71.6144,VALID,536.776,VALID,24.4978,VALID,163,VALID,0.00195313,
2015-02-14, 09:39:04,VALID,918.307,VALID,0,VALID,72.2471,VALID,543.545,VALID,24.654,VALID,161,VALID,0.204688,
2015-02-14, 09:40:04,VALID,918.297,VALID,0,VALID,69.983,VALID,539.462,VALID,24.7126,VALID,133,VALID,2.41445,
2015-02-14, 09:41:04,VALID,918.301,VALID,0,VALID,72.4529,VALID,536.561,VALID,24.7516,VALID,73,VALID,1.16992,
2015-02-14, 09:42:04,VALID,918.295,VALID,0,VALID,71.0502,VALID,533.016,VALID,24.8883,VALID,128,VALID,0,
2015-02-14, 09:43:04,VALID,918.312,VALID,0,VALID,72.1175,VALID,550.528,VALID,24.9664,VALID,187,VALID,0,
2015-02-14, 09:44:04,VALID,918.308,VALID,0,VALID,69.1901,VALID,537.421,VALID,24.8688,VALID,182,VALID,0.0128906,
2015-02-14, 09:45:04,VALID,918.296,VALID,0,VALID,70.2345,VALID,547.413,VALID,24.8688,VALID,141,VALID,1.45195,
2015-02-14, 09:46:04,VALID,918.303,VALID,0,VALID,70.6386,VALID,547.735,VALID,24.9274,VALID,146,VALID,0.0640625,
2015-02-14, 09:47:04,VALID,918.293,VALID,0,VALID,69.7924,VALID,555.363,VALID,24.9859,VALID,188,VALID,0.0167969,
2015-02-14, 09:48:04,VALID,918.271,VALID,0,VALID,69.6094,VALID,554.611,VALID,24.9664,VALID,242,VALID,0.0121094,
2015-02-14, 09:49:04,VALID,918.261,VALID,0,VALID,68.3668,VALID,561.595,VALID,25.0055,VALID,181,VALID,0.533984,
2015-02-14, 09:50:04,VALID,918.244,VALID,0,VALID,69.1749,VALID,559.768,VALID,24.9078,VALID,148,VALID,1.52578,
2015-02-14, 09:51:04,VALID,918.208,VALID,0,VALID,70.3108,VALID,557.62,VALID,24.945,VALID,170,VALID,0,
2015-02-14, 09:52:04,VALID,918.23,VALID,0,VALID,69.6856,VALID,563.529,VALID,25.1793,VALID,176,VALID,0,
2015-02-14, 09:53:04,VALID,918.24,VALID,0,VALID,69.4951,VALID,562.562,VALID,25.4351,VALID,95,VALID,0,
2015-02-14, 09:54:04,VALID,918.252,VALID,0,VALID,68.6031,VALID,562.562,VALID,25.5523,VALID,145,VALID,0.0613281,
2015-02-14, 09:55:04,VALID,918.281,VALID,0,VALID,67.2614,VALID,572.446,VALID,25.5698,VALID,176,VALID,0.378125,
2015-02-14, 09:56:04,VALID,918.304,VALID,0,VALID,66.156,VALID,564.818,VALID,25.5132,VALID,172,VALID,0.307031,
2015-02-14, 09:57:04,VALID,918.3,VALID,0,VALID,67.6502,VALID,568.256,VALID,25.4917,VALID,185,VALID,0.148047,
2015-02-14, 09:58:04,VALID,918.307,VALID,0,VALID,67.7112,VALID,496.271,VALID,25.6089,VALID,212,VALID,0.107813,
2015-02-14, 09:59:04,VALID,918.298,VALID,0,VALID,68.1305,VALID,588.67,VALID,25.5308,VALID,144,VALID,0.529688,
2015-02-14, 10:00:04,VALID,918.344,VALID,0,VALID,66.156,VALID,598.017,VALID,25.4917,VALID,157,VALID,0.520312,
2015-02-14, 10:01:04,VALID,918.305,VALID,0,VALID,65.9654,VALID,599.199,VALID,25.355,VALID,146,VALID,0,
2015-02-14, 10:02:04,VALID,918.283,VALID,0,VALID,67.6578,VALID,616.927,VALID,25.4331,VALID,180,VALID,0.116406,
2015-02-14, 10:03:04,VALID,918.335,VALID,0,VALID,68.6412,VALID,634.333,VALID,25.5503,VALID,182,VALID,0.137109,
2015-02-14, 10:04:04,VALID,918.373,VALID,0,VALID,67.452,VALID,641.424,VALID,25.5113,VALID,123,VALID,1.42734,
2015-02-14, 10:05:04,VALID,918.343,VALID,0,VALID,66.9336,VALID,637.986,VALID,25.3355,VALID,122,VALID,0.374609,
2015-02-14, 10:06:04,VALID,918.32,VALID,0,VALID,66.9412,VALID,654.317,VALID,25.2769,VALID,211,VALID,0.466016,
2015-02-14, 10:07:04,VALID,918.359,VALID,0,VALID,68.6565,VALID,648.73,VALID,25.4136,VALID,186,VALID,0,
2015-02-14, 10:08:04,VALID,918.392,VALID,0,VALID,65.9349,VALID,644.325,VALID,25.3374,VALID,122,VALID,0.0402344,
2015-02-14, 10:09:04,VALID,918.377,VALID,0,VALID,69.1444,VALID,651.416,VALID,25.357,VALID,122,VALID,0.00078125,
2015-02-14, 10:10:04,VALID,918.347,VALID,0,VALID,68.6412,VALID,662.697,VALID,25.4156,VALID,139,VALID,1.15469,
2015-02-14, 10:11:04,VALID,918.364,VALID,0,VALID,67.4062,VALID,662.912,VALID,25.5308,VALID,197,VALID,0.960156,
2015-02-14, 10:12:04,VALID,918.379,VALID,0,VALID,66.9488,VALID,657.11,VALID,25.7066,VALID,201,VALID,0.583203,